User: anonymous   Login
Location: Unspecified
(0.0000°N, 0.0000°E)
Time: 14:25:46
(UTC+00:00)
Language:

GEOS 3 - Orbit

View from above orbital plane
View from above orbital plane
View from above satellite
View from above satellite

Ground track
Ground track

The orbit data is extracted from the following two-line orbital elements,

1  7734U 75027A   18267.61658622 -.00000161 +00000-0 +72140-5 0  9990
2  7734 114.9920 098.2456 0028035 264.1953 095.5928 14.18626621249089
Epoch (UTC): 24 September 2018 14:47:53
Eccentricity: 0.0028035
inclination: 114.9920°
perigee height: 810 km
apogee height: 850 km
right ascension of ascending node: 98.2456°
argument of perigee: 264.1953°
revolutions per day: 14.18626621
mean anomaly at epoch: 95.5928°
orbit number at epoch: 24908

The dashed part of the orbit path shows where the satellite is in the earth's shadow,  

DLR